Time,TemperatureF,DewpointF,PressureIn,WindDirection,WindDirectionDegrees,WindSpeedMPH,WindSpeedGustMPH,Humidity,HourlyPrecipIn,Conditions,Clouds,dailyrainin,SoftwareType,DateUTC
2013-04-02 00:09:00,47.9,47.0,30.18,ENE,72,0.0,0.0,97,0.00,,,0.00,weatherlink.com 1.10,2013-04-02 07:09:00,
2013-04-02 00:24:00,46.8,46.0,30.18,ENE,72,0.0,0.0,97,0.00,,,0.00,weatherlink.com 1.10,2013-04-02 07:24:00,
2013-04-02 00:39:00,46.3,46.0,30.18,NE,53,0.0,0.0,98,0.00,,,0.00,weatherlink.com 1.10,2013-04-02 07:39:00,
2013-04-02 00:54:00,45.8,45.0,30.19,NE,51,0.0,0.0,98,0.00,,,0.00,weatherlink.com 1.10,2013-04-02 07:54:00,
2013-04-02 01:09:00,45.7,45.0,30.19,NE,51,0.0,0.0,98,0.00,,,0.00,weatherlink.com 1.10,2013-04-02 08:09:00,
2013-04-02 01:24:00,45.8,45.0,30.20,NE,49,0.0,0.0,98,0.00,,,0.00,weatherlink.com 1.10,2013-04-02 08:24:00,
2013-04-02 01:39:00,46.3,46.0,30.20,NE,54,0.0,0.0,98,0.00,,,0.00,weatherlink.com 1.10,2013-04-02 08:39:00,
2013-04-02 01:54:00,47.7,48.0,30.20,NE,34,0.0,0.0,99,0.00,,,0.00,weatherlink.com 1.10,2013-04-02 08:54:00,
2013-04-02 02:10:00,49.1,49.0,30.20,NE,43,0.0,0.0,99,0.00,,,0.00,weatherlink.com 1.10,2013-04-02 09:10:00,
2013-04-02 02:25:00,50.1,50.0,30.20,NW,307,0.0,2.0,99,0.00,,,0.00,weatherlink.com 1.10,2013-04-02 09:25:00,
2013-04-02 02:40:00,51.4,51.0,30.20,WNW,301,4.0,8.0,99,0.00,,,0.00,weatherlink.com 1.10,2013-04-02 09:40:00,
2013-04-02 02:55:00,51.7,52.0,30.19,WNW,293,2.0,8.0,99,0.00,,,0.00,weatherlink.com 1.10,2013-04-02 09:55:00,
2013-04-02 03:10:00,51.8,51.0,30.18,West,281,4.0,6.0,98,0.00,,,0.00,weatherlink.com 1.10,2013-04-02 10:10:00,
2013-04-02 03:25:00,51.8,51.0,30.18,West,273,4.0,6.0,98,0.00,,,0.00,weatherlink.com 1.10,2013-04-02 10:25:00,
2013-04-02 03:40:00,51.5,51.0,30.18,West,281,6.0,8.0,98,0.00,,,0.00,weatherlink.com 1.10,2013-04-02 10:40:00,
2013-04-02 03:55:00,51.3,51.0,30.18,WNW,291,5.0,7.0,98,0.00,,,0.00,weatherlink.com 1.10,2013-04-02 10:55:00,
2013-04-02 04:10:00,51.1,51.0,30.18,West,265,5.0,9.0,98,0.00,,,0.00,weatherlink.com 1.10,2013-04-02 11:10:00,
2013-04-02 04:26:00,50.8,50.0,30.18,WNW,297,4.0,6.0,98,0.00,,,0.00,weatherlink.com 1.10,2013-04-02 11:26:00,
2013-04-02 04:40:00,50.7,50.0,30.17,West,278,6.0,8.0,98,0.00,,,0.00,weatherlink.com 1.10,2013-04-02 11:40:00,
2013-04-02 04:55:00,50.7,51.0,30.18,WNW,290,3.0,8.0,99,0.00,,,0.00,weatherlink.com 1.10,2013-04-02 11:55:00,
2013-04-02 05:10:00,50.5,50.0,30.17,West,274,1.0,4.0,98,0.00,,,0.00,weatherlink.com 1.10,2013-04-02 12:10:00,
2013-04-02 05:25:00,50.6,50.0,30.17,West,260,1.0,7.0,99,0.00,,,0.00,weatherlink.com 1.10,2013-04-02 12:25:00,
2013-04-02 05:40:00,50.6,50.0,30.18,WSW,248,5.0,7.0,98,0.00,,,0.00,weatherlink.com 1.10,2013-04-02 12:40:00,
2013-04-02 05:55:00,50.4,50.0,30.18,WSW,239,5.0,6.0,98,0.00,,,0.00,weatherlink.com 1.10,2013-04-02 12:55:00,
2013-04-02 06:10:00,50.4,50.0,30.18,WSW,252,5.0,5.0,98,0.00,,,0.00,weatherlink.com 1.10,2013-04-02 13:10:00,
2013-04-02 06:25:00,50.3,50.0,30.18,WNW,282,2.0,7.0,98,0.00,,,0.00,weatherlink.com 1.10,2013-04-02 13:25:00,
2013-04-02 06:40:00,50.2,50.0,30.18,West,269,3.0,5.0,98,0.00,,,0.00,weatherlink.com 1.10,2013-04-02 13:40:00,
2013-04-02 06:55:00,50.6,50.0,30.19,West,274,3.0,6.0,98,0.00,,,0.00,weatherlink.com 1.10,2013-04-02 13:55:00,
2013-04-02 07:10:00,50.5,50.0,30.19,WNW,287,0.0,5.0,98,0.00,,,0.00,weatherlink.com 1.10,2013-04-02 14:10:00,
2013-04-02 07:25:00,50.5,50.0,30.19,West,278,1.0,4.0,98,0.00,,,0.00,weatherlink.com 1.10,2013-04-02 14:25:00,
2013-04-02 07:40:00,51.0,51.0,30.19,WSW,238,5.0,7.0,99,0.00,,,0.00,weatherlink.com 1.10,2013-04-02 14:40:00,
2013-04-02 07:55:00,50.9,50.0,30.20,WSW,257,3.0,6.0,98,0.00,,,0.00,weatherlink.com 1.10,2013-04-02 14:55:00,
2013-04-02 08:10:00,51.0,50.0,30.20,West,259,7.0,9.0,97,0.00,,,0.00,weatherlink.com 1.10,2013-04-02 15:10:00,
2013-04-02 08:25:00,51.0,50.0,30.20,WNW,282,2.0,5.0,97,0.00,,,0.00,weatherlink.com 1.10,2013-04-02 15:25:00,
2013-04-02 08:40:00,51.0,50.0,30.20,NNE,23,0.0,4.0,96,0.00,,,0.00,weatherlink.com 1.10,2013-04-02 15:40:00,
2013-04-02 08:55:00,51.1,50.0,30.20,NNE,24,0.0,3.0,97,0.00,,,0.00,weatherlink.com 1.10,2013-04-02 15:55:00,
2013-04-02 09:10:00,51.3,51.0,30.20,WNW,288,0.0,0.0,97,0.00,,,0.00,weatherlink.com 1.10,2013-04-02 16:10:00,
2013-04-02 09:25:00,51.5,51.0,30.20,SE,135,0.0,2.0,97,0.00,,,0.00,weatherlink.com 1.10,2013-04-02 16:25:00,
2013-04-02 09:40:00,51.6,51.0,30.20,West,281,0.0,3.0,96,0.00,,,0.00,weatherlink.com 1.10,2013-04-02 16:40:00,
2013-04-02 09:55:00,52.6,52.0,30.20,SW,221,0.0,3.0,97,0.00,,,0.00,weatherlink.com 1.10,2013-04-02 16:55:00,
2013-04-02 10:10:00,52.7,51.0,30.21,SE,143,2.0,4.0,95,0.00,,,0.00,weatherlink.com 1.10,2013-04-02 17:10:00,
2013-04-02 10:25:00,53.3,52.0,30.21,SSW,198,1.0,1.0,95,0.00,,,0.00,weatherlink.com 1.10,2013-04-02 17:25:00,
2013-04-02 10:40:00,54.5,53.0,30.22,SW,225,0.0,0.0,95,0.00,,,0.00,weatherlink.com 1.10,2013-04-02 17:40:00,
2013-04-02 10:55:00,54.8,53.0,30.22,WNW,285,3.0,4.0,92,0.00,,,0.00,weatherlink.com 1.10,2013-04-02 17:55:00,
2013-04-02 11:10:00,54.5,52.0,30.23,West,278,7.0,10.0,91,0.00,,,0.00,weatherlink.com 1.10,2013-04-02 18:10:00,
2013-04-02 11:25:00,54.1,52.0,30.22,West,266,6.0,11.0,93,0.00,,,0.00,weatherlink.com 1.10,2013-04-02 18:25:00,
2013-04-02 11:40:00,53.8,52.0,30.23,West,274,9.0,13.0,93,0.00,,,0.00,weatherlink.com 1.10,2013-04-02 18:40:00,
2013-04-02 12:11:00,53.4,52.0,30.22,West,273,10.0,12.0,94,0.00,,,0.00,weatherlink.com 1.10,2013-04-02 19:11:00,
2013-04-02 12:25:00,53.5,52.0,30.21,West,272,5.0,11.0,93,0.00,,,0.00,weatherlink.com 1.10,2013-04-02 19:25:00,
2013-04-02 12:40:00,53.6,52.0,30.21,WNW,298,7.0,10.0,93,0.00,,,0.00,weatherlink.com 1.10,2013-04-02 19:40:00,
2013-04-02 12:56:00,53.4,52.0,30.20,WNW,298,4.0,11.0,93,0.00,,,0.00,weatherlink.com 1.10,2013-04-02 19:56:00,
2013-04-02 13:11:00,54.5,52.0,30.20,WNW,284,6.0,12.0,92,0.00,,,0.00,weatherlink.com 1.10,2013-04-02 20:11:00,
2013-04-02 13:26:00,54.6,52.0,30.20,West,272,6.0,10.0,91,0.00,,,0.00,weatherlink.com 1.10,2013-04-02 20:26:00,
2013-04-02 13:41:00,54.9,52.0,30.19,West,269,2.0,9.0,91,0.00,,,0.00,weatherlink.com 1.10,2013-04-02 20:41:00,
2013-04-02 13:56:00,54.9,52.0,30.18,NW,314,7.0,12.0,91,0.00,,,0.00,weatherlink.com 1.10,2013-04-02 20:56:00,
2013-04-02 14:11:00,55.1,53.0,30.19,NW,312,8.0,12.0,91,0.00,,,0.00,weatherlink.com 1.10,2013-04-02 21:11:00,
2013-04-02 14:26:00,54.6,52.0,30.18,WNW,285,9.0,14.0,91,0.00,,,0.00,weatherlink.com 1.10,2013-04-02 21:26:00,
2013-04-02 14:41:00,54.2,52.0,30.19,WNW,298,6.0,14.0,92,0.00,,,0.00,weatherlink.com 1.10,2013-04-02 21:41:00,
2013-04-02 14:56:00,53.8,52.0,30.19,WNW,285,6.0,13.0,92,0.00,,,0.00,weatherlink.com 1.10,2013-04-02 21:56:00,
2013-04-02 15:11:00,52.9,51.0,30.19,NW,312,6.0,14.0,93,0.00,,,0.00,weatherlink.com 1.10,2013-04-02 22:11:00,
2013-04-02 15:56:00,53.2,52.0,30.17,WNW,287,5.0,12.0,94,0.00,,,0.00,weatherlink.com 1.10,2013-04-02 22:56:00,
2013-04-02 16:11:00,52.6,51.0,30.16,NW,309,8.0,12.0,93,0.00,,,0.00,weatherlink.com 1.10,2013-04-02 23:11:00,
2013-04-02 17:11:00,51.6,50.0,30.15,WNW,291,7.0,12.0,94,0.00,,,0.00,weatherlink.com 1.10,2013-04-03 00:11:00,
2013-04-02 17:26:00,51.6,50.0,30.15,West,276,5.0,13.0,95,0.00,,,0.00,weatherlink.com 1.10,2013-04-03 00:26:00,
2013-04-02 17:41:00,50.8,50.0,30.16,WNW,290,5.0,15.0,96,0.00,,,0.00,weatherlink.com 1.10,2013-04-03 00:41:00,
2013-04-02 17:56:00,50.6,50.0,30.16,NW,307,11.0,13.0,96,0.00,,,0.00,weatherlink.com 1.10,2013-04-03 00:56:00,
2013-04-02 18:41:00,49.9,49.0,30.14,West,271,4.0,14.0,98,0.00,,,0.00,weatherlink.com 1.10,2013-04-03 01:41:00,
2013-04-02 18:56:00,49.8,49.0,30.15,West,281,6.0,12.0,98,0.00,,,0.00,weatherlink.com 1.10,2013-04-03 01:56:00,
2013-04-02 19:11:00,49.5,49.0,30.14,NW,305,5.0,11.0,98,0.00,,,0.00,weatherlink.com 1.10,2013-04-03 02:11:00,
2013-04-02 19:40:00,49.3,49.0,30.14,WNW,297,3.0,8.0,98,0.00,,,0.00,weatherlink.com 1.10,2013-04-03 02:40:00,
2013-04-02 19:56:00,49.7,50.0,30.15,West,277,5.0,10.0,99,0.00,,,0.00,weatherlink.com 1.10,2013-04-03 02:56:00,
2013-04-02 20:11:00,49.1,49.0,30.15,NW,304,4.0,9.0,98,0.00,,,0.00,weatherlink.com 1.10,2013-04-03 03:11:00,
2013-04-02 20:26:00,49.2,49.0,30.16,West,269,3.0,10.0,99,0.00,,,0.00,weatherlink.com 1.10,2013-04-03 03:26:00,
2013-04-02 20:41:00,49.0,49.0,30.16,WNW,285,5.0,9.0,99,0.00,,,0.00,weatherlink.com 1.10,2013-04-03 03:41:00,
2013-04-02 20:56:00,49.2,49.0,30.17,West,271,6.0,10.0,99,0.00,,,0.00,weatherlink.com 1.10,2013-04-03 03:56:00,
2013-04-02 21:11:00,49.2,49.0,30.19,WNW,282,5.0,10.0,99,0.00,,,0.00,weatherlink.com 1.10,2013-04-03 04:11:00,
2013-04-02 21:26:00,49.3,49.0,30.19,WNW,301,7.0,11.0,99,0.00,,,0.00,weatherlink.com 1.10,2013-04-03 04:26:00,
2013-04-02 21:41:00,49.1,49.0,30.20,WNW,297,8.0,14.0,99,0.00,,,0.00,weatherlink.com 1.10,2013-04-03 04:41:00,
2013-04-02 21:56:00,49.1,49.0,30.19,West,277,5.0,12.0,99,0.00,,,0.00,weatherlink.com 1.10,2013-04-03 04:56:00,
2013-04-02 22:11:00,49.1,49.0,30.19,WNW,301,5.0,10.0,99,0.00,,,0.00,weatherlink.com 1.10,2013-04-03 05:11:00,
2013-04-02 22:26:00,49.1,49.0,30.19,West,280,7.0,10.0,99,0.00,,,0.00,weatherlink.com 1.10,2013-04-03 05:26:00,
2013-04-02 22:41:00,49.1,49.0,30.19,West,278,4.0,10.0,99,0.00,,,0.00,weatherlink.com 1.10,2013-04-03 05:41:00,
2013-04-02 22:56:00,49.4,49.0,30.18,WNW,284,10.0,11.0,99,0.00,,,0.00,weatherlink.com 1.10,2013-04-03 05:56:00,
2013-04-02 23:11:00,49.2,49.0,30.18,West,277,3.0,9.0,99,0.00,,,0.00,weatherlink.com 1.10,2013-04-03 06:11:00,
2013-04-02 23:41:00,49.1,49.0,30.17,WNW,302,7.0,8.0,99,0.00,,,0.00,weatherlink.com 1.10,2013-04-03 06:41:00,
2013-04-02 23:56:00,49.0,49.0,30.17,WNW,290,5.0,8.0,99,0.00,,,0.00,weatherlink.com 1.10,2013-04-03 06:56:00,